Current Version              Previous Version:    01  02  03  04  05  06  07  08  09  10  11  12  13  14  15  16  17  18  19  20  21  22  23  24  25  26  27  28  29  30  
   31  32  33  34  35  36  37  38  39  40  41  42  43  44  45  46  47  48  49  50  51  52  53  54  55  56  57  58  59  60  

[Printable]
712
ASUS44 KLUB 310410
RWRTX
WEST TEXAS WEATHER ROUNDUP
NATIONAL WEATHER SERVICE LUBBOCK TX
1100 PM CDT THU OCT 30 2014

NOTE: "FAIR" INDICATES FEW OR NO CLOUDS BELOW 12,000 FEET WITH NO
SIGNIFICANT WEATHER AND/OR OBSTRUCTIONS TO VISIBILITY.

TXZ004-006>008-010-012-014-016-OKZ002-310500-
TEXAS PANHANDLE/OKLAHOMA PANHANDLE

CITY           SKY/WX    TMP DP  RH WIND       PRES   REMARKS
AMARILLO       CLEAR     48  31  51 E6        30.35R
BORGER         CLEAR     56  29  35 NE6       30.34R
CANADIAN       CLEAR     45  35  67 CALM      30.31R
DALHART        CLEAR     48  29  47 NE10      30.38R
DUMAS            N/A     46  28  49 N5        30.36R
GUYMON         CLEAR     49  29  46 N7        30.35R
HEREFORD       CLEAR     44  36  73 CALM      30.36R
PAMPA          CLEAR     48  31  50 NE9       30.34R
PERRYTON       CLEAR     51  29  42 N6        30.33R
$$

TXZ026-029-035-045-048-310500-
SOUTHERN PANHANDLE/SOUTH PLAINS/ROLLING PLAINS

CITY           SKY/WX    TMP DP  RH WIND       PRES   REMARKS
CHILDRESS      CLEAR     62  31  31 NE7       30.29R
SEMINOLE       CLEAR     58  49  72 NE7       30.30R
LUBBOCK        CLEAR     51  33  50 NE9       30.30R
PLAINVIEW      CLEAR     50  32  49 NE5       30.31R
SNYDER         CLEAR     64  45  50 NE13      30.26R
$$

TXZ052-054-060>062-072-078-127-140-154-169-310500-
PERMIAN BASIN/CONCHO VALLEY/BIG COUNTRY/EDWARDS PLATEAU

CITY           SKY/WX    TMP DP  RH WIND       PRES   REMARKS
ABILENE        MOCLDY    70  52  52 NE13      30.23R
BIG SPRING     CLEAR     66  53  62 NE15      30.26R
BRADY          LGT RAIN  70  61  73 N12       30.17R
BROWNWOOD      CLOUDY    68  63  83 NE5       30.18R
JUNCTION       PTCLDY    71  58  63 E3        30.13R
MIDLAND        CLEAR     67  56  67 NE16      30.23R
ODESSA         CLEAR     66  53  63 NE14      30.24R
SAN ANGELO     MOCLDY    74  57  55 NE16G24   30.18R
SONORA         CLEAR     64  55  72 N5        30.18R
SWEETWATER     PTCLDY    66  45  46 NE10      30.28R
WINK           CLEAR     61  45  55 N10       30.21R
$$

TXZ055-058-074-075-080-082-310500-
FAR WEST/SOUTHWEST MOUNTAINS/TRANS PECOS

CITY           SKY/WX    TMP DP  RH WIND       PRES   REMARKS
ALPINE         CLEAR     52  35  52 S3        30.34R
DRYDEN           N/A     69  60  73 NE7       30.13R
EL PASO        PTCLDY    67  33  28 N9        30.22R
FORT STOCKTON  CLEAR     63  38  39 N6        30.21R
GUADALUPE PASS CLEAR     58  42  55 NE35      30.33R
MARFA          CLEAR     57  34  41 N10       30.30S
PECOS          CLEAR     64  44  47 N8        30.22R
PRESIDIO       FAIR      75  35  22 N17       30.14R
$$

TXZ014-016-019-021>030-083-310500
TEXAS TECH WEST TEXAS MESONET/TEXAS PANHANDLE/NORTHERN SOUTH PLAINS

CITY           SKY/WX    TMP DP  RH WIND       PRES   REMARKS
ABERNATHY 5ENE   N/A     44  34  66 N7        30.32R
AMARILLO 9NNE    N/A     48  30  49 SE1       30.34R
AMARILLO 7SSE    N/A     45  33  63 NE8       30.35R
AMHERST 1NE      N/A     49  31  49 NE5       30.33R
BOOTLEG 11WNW    N/A     48  27  43 E5        30.39R
CANADIAN 6E      N/A     48  31  52 N12       30.29S
CAPROCK CYN SP   N/A     57  32  38 N3        30.32R
CHILDRESS 2NNE   N/A     57  32  38 N6        30.28R
CLARENDON 2WSW   N/A     46  31  54 N2        30.32R
CLAUDE 12SW      N/A     48  33  55 NE9       30.34R
DIMMITT 2NE      N/A     44  33  63 NE8       30.35R
FLOYDADA 2NNE    N/A     48  31  52 N10       30.31R
FRIONA 2NE       N/A     43  31  62 CALM      30.37R
GOODLETT 3W      N/A     56  33  42 N9        30.26R
HART 3N          N/A     43  34  70 N8        30.34R
HEREFORD 2NW     N/A     42  31  64 NE2       30.35R
MCLEAN 1E        N/A     56  28  34 N9        30.30R
MEMPHIS 1NE      N/A     55  32  42 N7        30.29R
MULESHOE 2SSW    N/A     43  30  59 NE5       30.35R
OLTON 6S         N/A     47  32  56 N8        30.33R
PALO DURO SP     N/A     53  31  42 N2        30.35R
PAMPA 2E         N/A     49  31  50 NE6       30.33R
PLAINVIEW 1S     N/A     54  31  42 N6        30.32R
SILVERTON 7ESE   N/A     55  31  40 NE9       30.32R
TULIA 2ENE       N/A     47  32  56 N7        30.33R
TURKEY 2WSW      N/A     54  32  43 N7        30.30R
UMBARGER 3NNE    N/A     49  31  51 N1        30.36R
$$

TXZ033>036-039>041-045>048-310500
TEXAS TECH WEST TEXAS MESONET/SOUTH PLAINS

CITY           SKY/WX    TMP DP  RH WIND       PRES   REMARKS
AIKEN 3WSW       N/A     45  33  63 N6        30.33R
ANDREWS 2NE      N/A     62  51  67 NE8       30.26R
ANTON 6SSW       N/A     52  33  48 NE9       30.32R
BROWNFIELD 2S    N/A     56  36  48 NE9       30.30R
DENVR CTY 7WNW   N/A     51  40  66 NE9       30.31R
GAIL 2ESE        N/A     63  43  48 NE8       30.26R
LAMESA 2SE       N/A     60  42  50 NE9       30.28R
LEVELLAND 4S     N/A     45  32  59 N6        30.32R
LUBBOCK 3WNW     N/A     57  32  38 NE7       30.31R
MORTON 1ENE      N/A     46  32  58 N7        30.33R
ODONNELL 1N      N/A     59  34  38 NE12      30.29R
PLAINS 3N        N/A     52  35  51 NE8       30.32R
RALLS 1SE        N/A     51  32  48 NE6       30.31R
REESE CENTER     N/A     52  32  47 NE6       30.31R
SEMINOLE 2NNE    N/A     56  47  70 NE8       30.29R
SLATON 2NE       N/A     57  30  35 NE7       30.30R
SNYDER 3E        N/A     64  40  42 NE12      30.26R
SUNDOWN 8SW      N/A     46  33  59 N8        30.32R
TAHOKA 3NNE      N/A     55  33  44 NE8       30.29R
WOLFFORTH 6SSW   N/A     55  34  44 NE8       30.31R
$$

TXZ031-032-036>038-042>044-310500-
TEXAS TECH WEST TEXAS MESONET/ROLLING PLAINS

CITY           SKY/WX    TMP DP  RH WIND       PRES   REMARKS
ASPERMONT 3NE    N/A     61  35  38 NE6       30.25R
FLUVANNA 3WNW    N/A     62  38  40 NE12      30.27R
GRAHAM 5SSW      N/A     59  34  38 NE16      30.28R
GUTHRIE 10WSW    N/A     56  32  39 N1        30.26R
HASKELL 1NW      N/A     56  37  49 NE8       30.23R
JAYTON 1SSE      N/A     59  35  40 NE7       30.26R
KNOX CITY 3NW    N/A     60  33  36 N5        30.25R
LK A HENRY 1NW   N/A     62  35  36 NE10      30.27R
NORTHFIELD 1S    N/A     58  32  37 N5        30.29R
ODELL 4ENE       N/A     53  36  52 N8        30.26R
PADUCAH 10SW     N/A     55  32  42 NW5       30.27R
POST 1NE         N/A     58  35  42 N6        30.28R
RRING SPRGS 3N   N/A     55  33  42 N8        30.29R
SEYMOUR 3NW      N/A     53  38  58 N1        30.23R
SPUR 1W          N/A     56  31  38 NE5       30.26R
WEINERT 2NNE     N/A     57  36  45 NE6       30.24R
WHITE RVR 6NE    N/A     57  32  39 N13       30.28R
$$

TXZ052-054-060>062-072-078-127-140-154-169-310500-
TEXAS TECH WEST TEXAS MESONET/PERMIAN BASIN/
CONCHO VALLEY/BIG COUNTRY/EDWARDS PLATEAU

CITY           SKY/WX    TMP DP  RH WIND       PRES   REMARKS
COYANOSA 2N      N/A     62  44  51 N3        30.21R
JUNCTION 1SSW    N/A     69  58  67 N2        30.14R
MERTZON 3NNE     N/A     71  58  62 NE12      30.20R
SAN ANGELO 7NW   N/A     72  56  57 NE12      30.19R
STRLNG CT 4WSW   N/A     70  56  62 NE10      30.23R
ST LAWRNCE 5SW   N/A     67  55  64 NE16      30.21R
SWEETWATR 11SW   N/A     64  51  64 NE14      30.26R
WALL 1E          N/A     72  56  56 NE10      30.19R
$$

TXZ055-058-074-075-080-082-310500-
TEXAS TECH WEST TEXAS MESONET/FAR WEST/SOUTHWEST MOUNTAINS/TRANS PECOS

CITY           SKY/WX    TMP DP  RH WIND       PRES   REMARKS
PRSMN GAP BBNP   N/A     74  56  54 N12       30.15S
GUADLPE MTN NP   N/A     58  42  56 NE15      30.38R
$$